[[{"header":{"parameterUnit":"m.s-1","parameterCategory":1,"la1":30.2991,"la2":30.254,"lo1":-89.0895,"lo2":-89.0444,"dy":0.0017,"dx":0.0017,"nx":28,"ny":28,"refTime":"2025-04-09T09:00:00:Z","depth":0,"parameterNumber":2,"parameterNumberName":"U-component_of_WINDS"},"data":[0,0,0,0,0,0,0,0,0,0,0,0,0,0,0,0,0,0,0,0,0,0,0,0,0,0,0,0,0,0,0,0,0,0,0,0,0,0,0,0,0,0,0,0,0,0,0,0,0,0,0,0,0,0,0,0,0,0,1.9881,1.9883,0,2.0037,2.0038,2.004,2.0081,2.008,2.0079,2.0078,2.0244,2.0249,2.0255,0,0,0,0,0,0,0,0,0,0,0,0,0,1.9629,1.9634,1.9881,1.9883,1.9885,2.0036,2.0039,2.0041,2.0081,2.008,2.0079,2.0078,2.0243,2.0249,2.0255,0,0,0,0,0,0,0,0,0,0,0,0,0,1.9757,1.9635,1.9881,1.9923,1.9929,2.0036,2.0039,2.0041,2.0081,2.008,2.0079,2.0077,2.024,2.0248,2.0256,2.0334,0,0,2.028,2.0284,0,0,0,0,0,0,0,0,1.975,1.9767,1.9915,1.9921,1.9927,2.0038,2.0011,2.014,2.0082,2.0024,2.0078,2.0076,2.0177,2.019,2.0223,2.0342,2.0349,2.0281,2.0286,2.0289,2.0292,0,0,0,0,0,0,0,1.9741,1.976,1.9943,1.9917,1.9925,1.9938,1.9954,2.0035,2.0107,2.0029,2.0032,2.0049,2.018,2.0215,2.0227,2.0352,2.0281,2.0288,2.0293,2.0296,2.0547,2.0549,0,0,0,0,0,0,1.9724,1.9752,1.9938,1.9948,1.9833,1.9944,1.9962,2.0004,2.0106,2.012,2.005,2.0051,2.0202,2.0218,2.0233,2.0333,2.0289,2.0297,2.0301,2.0546,2.0548,2.055,0,0,0,0,0,0,1.9718,1.974,1.9932,1.9851,1.9876,1.9949,1.9996,2.0008,2.0042,2.0122,2.0136,2.0072,2.0202,2.0222,2.0309,2.034,2.03,2.0308,2.0543,2.0546,2.0549,2.0533,0,0,0,0,0,0,1.9711,1.9737,1.9765,1.9851,1.9881,2.0002,1.9998,2.0012,2.0055,2.0057,2.0147,2.016,2.0202,2.0297,2.0317,2.035,2.0314,2.0541,2.0545,2.0548,2.0531,2.0535,2.0538,0,0,0,0,0,1.9701,1.9755,1.9766,1.9789,1.9916,2.0004,2.0021,2.0066,2.0057,2.0088,2.014,2.0157,2.0333,2.0306,2.0329,2.0364,2.0539,2.0544,2.0548,2.053,2.0534,2.0538,0,0,0,0,0,0,1.9672,1.9767,1.978,1.9863,1.9925,2.001,2.0049,2.0069,2.0136,2.0135,2.0191,2.0211,2.0295,2.0339,2.0306,2.0448,2.0437,2.0446,2.0415,2.042,2.0424,2.0412,2.0321,0,0,0,0,0,1.9675,1.9736,1.9816,1.9882,1.9912,1.9976,2.0015,2.0045,2.0112,2.0139,2.0197,2.0264,2.0335,2.038,2.045,2.0539,2.0561,2.0575,2.0578,2.0581,2.0588,2.0642,2.065,2.0564,2.0564,2.0564,0,0,1.9682,1.9742,1.9777,1.9878,1.9929,1.9993,1.9997,2.0064,2.0114,2.015,2.0235,2.0281,2.036,2.0449,2.0492,2.0488,2.0617,2.0586,2.0588,2.0594,2.0647,2.0655,2.0662,2.0567,2.0566,2.0566,0,0,1.9728,1.9778,1.9839,1.9891,1.9968,2.0011,2.0026,2.0109,2.0141,2.0227,2.0257,2.0318,2.0438,2.0494,2.0538,2.0609,2.0629,2.0631,2.0649,2.0701,2.0708,2.0714,2.0742,2.075,2.0638,2.0638,2.0638,0,1.9727,1.9822,1.9869,1.9935,1.998,2.0015,2.008,2.0129,2.0226,2.0258,2.0253,2.0406,2.0461,2.0565,2.0583,2.0617,2.0638,2.062,2.0702,2.0709,2.0716,2.0743,2.0753,2.0638,2.0638,2.0638,2.0638,0,1.9819,1.9886,1.9926,2.0018,2.0068,2.0133,2.0192,2.0238,2.0265,2.0309,2.04,2.0468,2.0553,2.058,2.0607,2.069,2.0686,2.0691,2.0681,2.0723,2.075,2.076,2.0637,2.0637,2.0637,2.0637,0,0,1.9848,1.9966,1.998,2.0024,2.0114,2.0167,2.0237,2.0318,2.0358,2.0425,2.0486,2.0589,2.0595,2.0645,2.068,2.0725,2.0781,2.0726,2.0729,2.0734,2.0879,2.0874,2.0885,2.0795,2.0797,2.0798,2.0873,0,1.9905,2.0026,2.0072,2.0172,2.0236,2.0273,2.0334,2.0398,2.0442,2.0506,2.0556,2.0628,2.063,2.0661,2.0708,2.0763,2.081,2.0759,2.0855,2.0858,2.0833,2.0899,2.0894,2.096,2.0883,2.0885,2.0886,0,1.9987,2.0054,2.0161,2.0246,2.0275,2.0328,2.0408,2.0468,2.0543,2.0573,2.063,2.0662,2.074,2.0727,2.0836,2.08,2.0843,2.0877,2.0881,2.0892,2.0874,2.0912,2.0982,2.0992,2.0903,2.0902,2.09,0,1.9999,2.0116,2.0196,2.0232,2.0333,2.037,2.0415,2.0488,2.0536,2.0608,2.064,2.0721,2.0765,2.0829,2.0883,2.0868,2.099,2.098,2.1019,2.1018,2.1042,2.104,2.1121,2.1069,2.1069,2.1069,2.1068,0,2.0058,2.0122,2.0203,2.0251,2.0326,2.038,2.0453,2.0501,2.0567,2.0629,2.0667,2.0724,2.0793,2.0861,2.0905,2.0991,2.1011,2.1039,2.105,2.1036,2.1032,2.1064,2.1061,2.1071,2.1071,2.107,2.107,0,2.0082,2.0138,2.0228,2.0317,2.0342,2.0393,2.0471,2.0522,2.057,2.0648,2.0669,2.0745,2.0827,2.0888,2.0995,2.1025,2.1117,2.1128,2.1091,2.1096,2.1133,2.1129,2.1237,2.1255,2.119,2.1191,2.1191,0,2.0116,2.0166,2.0261,2.0304,2.0348,2.0417,2.0466,2.0523,2.0573,2.0665,2.0706,2.0791,2.0861,2.0992,2.1058,2.1141,2.1155,2.1188,2.1168,2.1153,2.1158,2.1154,2.1161,2.119,2.1191,2.1191,2.1191,0,2.017,2.0197,2.0264,2.0343,2.04,2.0465,2.0531,2.0565,2.0635,2.069,2.0774,2.0829,2.0938,2.1023,2.1114,2.1164,2.1191,2.1197,2.1211,2.1197,2.1173,2.1188,2.1099,2.1194,2.1194,2.1194,2.1193,2.1193,2.0201,2.0249,2.0324,2.0399,2.0455,2.0517,2.057,2.0625,2.0694,2.0787,2.0818,2.0905,2.0984,2.1108,2.1159,2.1231,2.1231,2.125,2.1256,2.1259,2.1259,2.1162,2.1248,2.1248,2.1248,2.1248,2.1248,0,2.0259,2.0309,2.0378,2.0469,2.053,2.0549,2.0624,2.0674,2.075,2.082,2.0889,2.0988,2.1071,2.1146,2.1233,2.1277,2.1292,2.1298,2.1296,2.1308,2.1253,2.1233,2.1285,2.1285,2.1285,2.1285,2.1285,2.1285,2.0295,2.0377,2.0413,2.0525,2.0577,2.0661,2.0703,2.0762,2.0819,2.0926,2.0995,2.1042,2.1116,2.121,2.1289,2.1309,2.1341,2.1344,2.1367,2.1315,2.1311,2.1306,2.1288,2.135,2.135,2.1416,2.1416,2.1417]},{"header":{"parameterUnit":"m.s-1","parameterCategory":1,"la1":30.2991,"la2":30.254,"lo1":-89.0895,"lo2":-89.0444,"dy":0.0017,"dx":0.0017,"nx":28,"ny":28,"refTime":"2025-04-09T09:00:00:Z","depth":0,"parameterNumber":3,"parameterNumberName":"V-component_of_WINDS"},"data":[0,0,0,0,0,0,0,0,0,0,0,0,0,0,0,0,0,0,0,0,0,0,0,0,0,0,0,0,0,0,0,0,0,0,0,0,0,0,0,0,0,0,0,0,0,0,0,0,0,0,0,0,0,0,0,0,0,0,3.2625,3.2629,0,3.3006,3.301,3.3015,3.3143,3.3142,3.314,3.3139,3.3526,3.3538,3.3549,0,0,0,0,0,0,0,0,0,0,0,0,0,3.2007,3.2018,3.2625,3.263,3.2634,3.3005,3.3011,3.3016,3.3143,3.3141,3.314,3.3138,3.3522,3.3536,3.355,0,0,0,0,0,0,0,0,0,0,0,0,0,3.232,3.2021,3.2624,3.2743,3.2757,3.3004,3.3011,3.3017,3.3144,3.3141,3.3139,3.3137,3.3518,3.3535,3.3552,3.3708,0,0,3.3606,3.3614,0,0,0,0,0,0,0,0,3.2302,3.2343,3.2721,3.2735,3.2752,3.3025,3.2935,3.3249,3.3144,3.2997,3.3138,3.3136,3.3361,3.3392,3.3468,3.3726,3.3743,3.3608,3.3619,3.3626,3.3631,0,0,0,0,0,0,0,3.2281,3.2327,3.2776,3.2726,3.2745,3.2777,3.2819,3.2995,3.3187,3.301,3.302,3.3063,3.3369,3.3451,3.3478,3.3749,3.3607,3.3623,3.3634,3.3641,3.4157,3.416,0,0,0,0,0,0,3.2239,3.2308,3.2763,3.2787,3.2517,3.279,3.2837,3.2939,3.3186,3.3221,3.3065,3.3068,3.3422,3.3457,3.3492,3.3694,3.3626,3.3643,3.3653,3.4154,3.4158,3.4161,0,0,0,0,0,0,3.2225,3.2278,3.2748,3.2551,3.2613,3.2803,3.2917,3.2948,3.303,3.3228,3.3262,3.3113,3.3421,3.3467,3.3655,3.3709,3.3651,3.3667,3.415,3.4155,3.4159,3.4095,0,0,0,0,0,0,3.2207,3.2273,3.2334,3.2551,3.2623,3.2904,3.2921,3.2957,3.306,3.3068,3.3282,3.3315,3.3423,3.3627,3.3672,3.3732,3.3681,3.4146,3.4152,3.4158,3.4093,3.4097,3.41,0,0,0,0,0,3.2185,3.2299,3.2336,3.2391,3.2704,3.2907,3.2948,3.307,3.3064,3.3128,3.3255,3.3308,3.3695,3.3645,3.3697,3.3763,3.4143,3.4151,3.4157,3.4092,3.4096,3.41,0,0,0,0,0,0,3.2083,3.233,3.2374,3.2562,3.2713,3.2928,3.3012,3.3071,3.3225,3.3226,3.337,3.3417,3.3594,3.3697,3.3637,3.3928,3.3922,3.394,3.3854,3.386,3.3864,3.3836,3.3695,0,0,0,0,0,3.2082,3.2227,3.2435,3.2581,3.2655,3.282,3.2913,3.2994,3.3156,3.322,3.3361,3.3514,3.3671,3.3771,3.3926,3.4108,3.4158,3.4179,3.4182,3.4184,3.4198,3.4305,3.4317,3.4184,3.4184,3.4184,0,0,3.2082,3.2236,3.2318,3.2565,3.2691,3.2838,3.2873,3.3026,3.3137,3.3243,3.3429,3.3538,3.3719,3.3905,3.3994,3.3996,3.4246,3.4193,3.4193,3.4207,3.4313,3.4326,3.4337,3.4189,3.4188,3.4187,0,0,3.2159,3.2288,3.2426,3.2552,3.2743,3.2853,3.2885,3.3093,3.317,3.3359,3.3442,3.3575,3.3841,3.3968,3.4067,3.4193,3.4249,3.4239,3.4258,3.436,3.4371,3.4381,3.4428,3.4443,3.4252,3.4252,3.4252,0,3.2135,3.2361,3.2489,3.264,3.2747,3.285,3.2991,3.3107,3.3338,3.3409,3.3409,3.3747,3.3876,3.4094,3.4125,3.4201,3.4244,3.4216,3.4359,3.437,3.4382,3.4428,3.4445,3.425,3.425,3.425,3.4251,0,3.2323,3.2478,3.2566,3.2789,3.2906,3.305,3.3201,3.3303,3.3374,3.3483,3.3676,3.3835,3.4025,3.4082,3.4152,3.4311,3.4307,3.433,3.4328,3.439,3.4436,3.4455,3.4247,3.4247,3.4248,3.4249,0,0,3.2346,3.2639,3.267,3.2773,3.2992,3.3115,3.3264,3.3451,3.3537,3.3693,3.3823,3.4046,3.4071,3.4183,3.4268,3.4357,3.445,3.4371,3.4378,3.4382,3.4638,3.462,3.4639,3.4488,3.4492,3.4495,3.4624,0,3.2453,3.2726,3.2847,3.3065,3.3211,3.3312,3.3443,3.3591,3.3698,3.3837,3.3954,3.4111,3.413,3.4199,3.4291,3.4419,3.4504,3.4411,3.4611,3.4617,3.4565,3.4663,3.4645,3.4759,3.4642,3.4645,3.4648,0,3.2614,3.2772,3.3006,3.321,3.3275,3.3391,3.3573,3.3705,3.3875,3.3947,3.4073,3.4155,3.4316,3.4301,3.4527,3.4461,3.455,3.4625,3.4632,3.4657,3.4637,3.4693,3.4798,3.4815,3.4677,3.4675,3.4673,0,3.261,3.2881,3.3057,3.3142,3.3383,3.3463,3.3567,3.3736,3.3841,3.4,3.407,3.4244,3.4341,3.4474,3.4601,3.4578,3.4815,3.481,3.488,3.4877,3.4927,3.4923,3.505,3.498,3.498,3.4979,3.4979,0,3.2718,3.2857,3.3059,3.3167,3.3327,3.3464,3.3618,3.373,3.3879,3.4011,3.4108,3.4229,3.4389,3.4531,3.4631,3.4804,3.4846,3.4908,3.4934,3.4902,3.4894,3.4963,3.4959,3.4984,3.4983,3.4982,3.4981,0,3.2741,3.2882,3.3081,3.3293,3.335,3.3459,3.3641,3.375,3.3861,3.4027,3.4074,3.4248,3.4421,3.4561,3.4785,3.4853,3.5034,3.5062,3.4977,3.4991,3.5054,3.5047,3.5232,3.5265,3.5169,3.517,3.5171,0,3.2802,3.2912,3.3137,3.3233,3.3337,3.3489,3.3598,3.3737,3.3847,3.4051,3.4136,3.4315,3.4467,3.4737,3.4884,3.5057,3.5091,3.5144,3.5117,3.5082,3.5095,3.5088,3.5101,3.5147,3.5147,3.5147,3.5147,0,3.2895,3.296,3.3113,3.3292,3.3419,3.3566,3.3716,3.3788,3.3955,3.4073,3.4251,3.4369,3.46,3.4777,3.4966,3.5073,3.5139,3.5154,3.518,3.5149,3.5097,3.5129,3.4987,3.515,3.515,3.515,3.5149,3.5149,3.2941,3.3044,3.322,3.3389,3.3516,3.3654,3.3768,3.3894,3.4045,3.4245,3.4318,3.4501,3.4671,3.4932,3.504,3.5186,3.5192,3.5229,3.5239,3.5246,3.5243,3.5072,3.522,3.522,3.5221,3.5221,3.5221,0,3.3041,3.316,3.3313,3.352,3.3653,3.3704,3.3872,3.398,3.4141,3.4294,3.4441,3.4647,3.4821,3.4981,3.5162,3.5248,3.5283,3.5291,3.5287,3.5312,3.5226,3.5187,3.526,3.526,3.526,3.526,3.526,3.526,3.3109,3.3288,3.3374,3.3617,3.3735,3.3917,3.4009,3.4137,3.4261,3.4487,3.4632,3.4736,3.4893,3.5086,3.5248,3.5291,3.5354,3.5355,3.5405,3.5323,3.5317,3.5312,3.5276,3.5367,3.5367,3.548,3.5481,3.5482]}]]